64013000, 5301503, 2016-10-30 00:00:00, 18.22960, 110.82820,  61,  10,  12, 28.05, 1014.90, 15.00, 5,  13, 255, 0.000
64013000, 5301503, 2016-10-30 01:00:00, 18.21520, 110.78900,   0,  10,   7, 28.05, 1015.80, 15.00, 6,   8, 255, 0.000
64013000, 5301503, 2016-10-30 02:00:00, 18.20740, 110.76940,   0,  11,   9, 28.05, 1016.40, 15.00, 5,   8, 255, 0.000
64013000, 5301503, 2016-10-30 03:00:00, 18.19860, 110.75220,   0,   9,   4, 28.05, 1016.30, 15.00, 7,   9, 255, 0.000
64013000, 5301503, 2016-10-30 04:00:00, 18.18840, 110.73440,   0,  10,   3, 28.04, 1015.80, 15.00, 5,   1, 255, 0.000
64013000, 5301503, 2016-10-30 05:00:00, 18.17660, 110.71580,   0,  11,   4, 28.04, 1015.10, 15.00, 5,  11, 255, 0.000
64013000, 5301503, 2016-10-30 06:00:00, 18.16340, 110.69840,   0,  11,   3, 28.03, 1014.40, 15.00, 4,  10, 255, 0.000
64013000, 5301503, 2016-10-30 07:00:00, 18.14920, 110.68060,   0,  11,   5, 28.03, 1013.80, 15.00, 5,  19, 255, 0.000
64013000, 5301503, 2016-10-30 08:00:00, 18.13540, 110.66100,   0,  10,   4, 28.02, 1013.90, 15.00, 3,  27, 255, 0.000
64013000, 5301503, 2016-10-30 09:00:00, 18.12060, 110.64060,   0,  11,   5, 28.01, 1013.90, 15.00, 4, 104, 255, 0.000
64013000, 5301503, 2016-10-30 10:00:00, 18.10580, 110.61960,   0,  11,   4, 28.00, 1013.90, 15.00, 5,  10, 255, 0.000
64013000, 5301503, 2016-10-30 11:00:00, 18.09280, 110.59820,   0,  11,   2, 27.99, 1014.00, 15.00, 4,   9, 255, 0.000
64013000, 5301503, 2016-10-30 12:00:00, 18.07800, 110.57800,   0,  12,   5, 27.98, 1014.60, 15.00, 6,   7, 255, 0.000
64013000, 5301503, 2016-10-30 13:00:00, 18.06280, 110.55840,   0,  11,   4, 27.99, 1015.20, 15.00, 3,  16, 255, 0.000
64013000, 5301503, 2016-10-30 14:00:00, 18.04680, 110.53760,   0,  11,   5, 27.98, 1015.30, 15.00, 5,  10, 255, 0.000
64013000, 5301503, 2016-10-30 15:00:00, 18.03060, 110.51620,   0,  11,   8, 27.99, 1015.20, 15.00, 4,   1, 255, 0.000
64013000, 5301503, 2016-10-30 16:00:00, 18.01360, 110.49620,   0,  11,   5, 27.97, 1015.10, 15.00, 8,   8, 255, 0.000
64013000, 5301503, 2016-10-30 17:00:00, 17.99540, 110.47560,   0,  11,   6, 27.98, 1014.60, 15.00, 5,   8, 255, 0.000
64013000, 5301503, 2016-10-30 18:00:00, 17.97580, 110.45460,   0,  11,   8, 27.98, 1014.00, 15.00, 3,   4, 255, 0.000
64013000, 5301503, 2016-10-30 19:00:00, 17.95620, 110.43400,   0,  11,   4, 27.98, 1013.80, 15.00, 4,   8, 255, 0.000
64013000, 5301503, 2016-10-30 20:00:00, 17.93620, 110.41280,   0,  10,   4, 27.97, 1013.50, 15.00, 5,  11, 255, 0.000
64013000, 5301503, 2016-10-30 21:00:00, 17.91660, 110.38920,   0,  11,   4, 27.98, 1013.60, 15.00, 6,  10, 255, 0.000
64013000, 5301503, 2016-10-30 22:00:00, 17.89780, 110.36460,   0,  11,   5, 27.99, 1014.10, 15.00, 3,  13, 255, 0.000
64013000, 5301503, 2016-10-30 23:00:00, 17.88040, 110.33880,   0,  10,   5, 27.98, 1014.80, 15.00, 5,   4, 255, 0.000
64013000, 5301503, 2016-10-31 00:00:00, 17.86280, 110.31200,   0,  10,   8, 27.99, 1015.40, 15.00, 4,  12, 255, 0.000
64013000, 5301503, 2016-10-31 01:00:00, 17.84480, 110.28660,   0,  11,   3, 28.00, 1015.80, 15.00, 5,  11, 255, 0.000
64013000, 5301503, 2016-10-31 02:00:00, 17.82660, 110.25840,   0,  10,   8, 28.02, 1016.10, 15.00, 4,  21, 255, 0.000
64013000, 5301503, 2016-10-31 03:00:00, 17.81040, 110.23140,   0,  11,   5, 28.03, 1016.20, 15.00, 5,   7, 255, 0.000
64013000, 5301503, 2016-10-31 04:00:00, 17.79440, 110.20360,   0,  10,   7, 28.05, 1015.60, 15.00, 3,   8, 255, 0.000
64013000, 5301503, 2016-10-31 05:00:00, 17.77900, 110.17620,   0,  11,   5, 28.07, 1014.90, 15.00, 4,  11, 255, 0.000
64013000, 5301503, 2016-10-31 06:00:00, 17.76320, 110.14960,   0,  11,   4, 28.06, 1014.50, 15.00, 4,  12, 255, 0.000
64013000, 5301503, 2016-10-31 07:00:00, 17.74680, 110.12360,   0,  11,   5, 28.05, 1013.70, 15.00, 5,  10, 255, 0.000
64013000, 5301503, 2016-10-31 08:00:00, 17.73040, 110.09820,   0,  11,   5, 28.06, 1013.30, 15.00, 6,  10, 255, 0.000
64013000, 5301503, 2016-10-31 09:00:00, 17.71500, 110.07140,   0,  11,   7, 28.06, 1013.20, 15.00, 5,   9, 255, 0.000
64013000, 5301503, 2016-10-31 10:00:00, 17.70160, 110.04580,   0,  11,   2, 28.07, 1013.20, 15.00, 5,   9, 255, 0.000
64013000, 5301503, 2016-10-31 11:00:00, 17.68800, 110.01800,   0,  11,   3, 28.06, 1013.80, 15.00, 5,  12, 255, 0.000
64013000, 5301503, 2016-10-31 12:00:00, 17.67480, 109.98900,   0,  11,   5, 28.06, 1014.30, 15.00, 5,   9, 255, 0.000
64013000, 5301503, 2016-10-31 13:00:00, 17.66260, 109.96060,   0,  11,   4, 28.07, 1014.80, 15.00, 6,  18, 255, 0.000
64013000, 5301503, 2016-10-31 14:00:00, 17.65040, 109.93260,   0,  11,   4, 28.07, 1015.20, 15.00, 3,  10, 255, 0.000
64013000, 5301503, 2016-10-31 15:00:00, 17.63860, 109.90480,   0,  11,   2, 28.07, 1015.00, 15.00, 4,   9, 255, 0.000
64013000, 5301503, 2016-10-31 16:00:00, 17.62640, 109.87720,   0,  11,   7, 28.06, 1014.80, 15.00, 4,   9, 255, 0.000
64013000, 5301503, 2016-10-31 17:00:00, 17.61500, 109.85220,   0,  12,   2, 28.05, 1014.40, 15.00, 4,  11, 255, 0.000
64013000, 5301503, 2016-10-31 18:00:00, 17.60200, 109.82680,   0,  11,  10, 28.05, 1014.00, 15.00, 4,  12, 255, 0.000
64013000, 5301503, 2016-10-31 19:00:00, 17.58880, 109.80520,   0,  11,   5, 28.05, 1013.60, 15.00, 4,  17, 255, 0.000
64013000, 5301503, 2016-10-31 20:00:00, 17.57420, 109.78480,   0,  11,   4, 28.05, 1013.50, 15.00, 3,  10, 255, 0.000
64013000, 5301503, 2016-10-31 21:00:00, 17.55880, 109.76460,   0,  11,   6, 28.04, 1013.00, 15.00, 6,   9, 255, 0.000
64013000, 5301503, 2016-10-31 22:00:00, 17.54320, 109.74500,   0,  11,   5, 28.04, 1013.50, 15.00, 5,  11, 255, 0.000
64013000, 5301503, 2016-10-31 23:00:00, 17.52720, 109.72520,   0,  10,   3, 28.03, 1013.90, 15.00, 5,  11, 255, 0.000
64013000, 5301503, 2016-11-01 00:00:00, 17.51100, 109.70320,   0,  10,   8, 28.02, 1014.50, 15.00, 6,  11, 255, 0.000
64013000, 5301503, 2016-11-01 01:00:00, 17.49480, 109.68240,   0,  10,   4, 28.02, 1014.80, 15.00, 5,   1, 255, 0.000
64013000, 5301503, 2016-11-01 02:00:00, 17.47860, 109.66180,   0,  10,   6, 28.03, 1015.60, 15.00, 4,  20, 255, 0.000
64013000, 5301503, 2016-11-01 03:00:00, 17.46260, 109.64060,   0,  10,   5, 28.03, 1015.60, 15.00, 7,   9, 255, 0.000
64013000, 5301503, 2016-11-01 04:00:00, 17.44580, 109.61920,   0,  10,   8, 28.03, 1015.20, 15.00, 4,  11, 255, 0.000
64013000, 5301503, 2016-11-01 05:00:00, 17.42860, 109.59900,   0,  11,   4, 28.04, 1014.40, 15.00, 7,  16, 255, 0.000
64013000, 5301503, 2016-11-01 06:00:00, 17.41140, 109.57840,   0,  11,   4, 28.04, 1013.90, 15.00, 4,  11, 255, 0.000
64013000, 5301503, 2016-11-01 07:00:00, 17.39320, 109.55720,   0,  11,   7, 28.04, 1013.40, 15.00, 4,  11, 255, 0.000
64013000, 5301503, 2016-11-01 08:00:00, 17.37600, 109.53640,   0,  11,   3, 28.04, 1012.90, 15.00, 4,  20, 255, 0.000
64013000, 5301503, 2016-11-01 09:00:00, 17.35960, 109.51540,   0,  11,   3, 28.02, 1013.00, 15.00, 6,  11, 255, 0.000
64013000, 5301503, 2016-11-01 10:00:00, 17.34360, 109.49220,   0,  11,  11, 28.01, 1014.00, 15.00, 5,  12, 255, 0.000
64013000, 5301503, 2016-11-01 11:00:00, 17.32980, 109.47000,   0,  10,   5, 28.01, 1014.30, 15.00, 4,  10, 255, 0.000
64013000, 5301503, 2016-11-01 12:00:00, 17.31680, 109.44600,   0,  12,   4, 27.99, 1014.70, 15.00, 5,   9, 255, 0.000
64013000, 5301503, 2016-11-01 13:00:00, 17.30480, 109.42140,   0,  11,   4, 27.98, 1015.60, 15.00, 5,  20, 255, 0.000
64013000, 5301503, 2016-11-01 14:00:00, 17.29360, 109.39580,   0,  11,   7, 27.97, 1015.90, 15.00, 6,  13, 255, 0.000
64013000, 5301503, 2016-11-01 15:00:00, 17.28320, 109.37040,   0,  11,   5, 27.97, 1015.60, 15.00, 5,   1, 255, 0.000
64013000, 5301503, 2016-11-01 16:00:00, 17.27260, 109.34600,   0,  10,   7, 27.96, 1015.30, 15.00, 6,  13, 255, 0.000
64013000, 5301503, 2016-11-01 17:00:00, 17.26200, 109.32280,   0,  11,  10, 27.95, 1015.10, 15.00, 5,  11, 255, 0.000
64013000, 5301503, 2016-11-01 18:00:00, 17.25140, 109.30220,   0,  11,   6, 27.94, 1014.50, 15.00, 5,  21, 255, 0.000
64013000, 5301503, 2016-11-01 19:00:00, 17.23940, 109.28320,   0,  11,   2, 27.94, 1014.40, 15.00, 5,  13, 255, 0.000
64013000, 5301503, 2016-11-01 20:00:00, 17.22500, 109.26600,   0,  11,   5, 27.93, 1014.00, 15.00, 5,   8, 255, 0.000
64013000, 5301503, 2016-11-01 21:00:00, 17.20840, 109.25280,   0,  11,   2, 27.92, 1014.20, 15.00, 4,   8, 255, 0.000
64013000, 5301503, 2016-11-01 22:00:00, 17.19040, 109.24200,   0,  11,   2, 27.91, 1014.50, 15.00, 6,  10, 255, 0.000
64013000, 5301503, 2016-11-01 23:00:00, 17.17020, 109.23160,   0,  10,   8, 27.91, 1015.30, 15.00, 5,   8, 255, 0.000
64013000, 5301503, 2016-11-02 00:00:00, 17.14820, 109.22220,   0,  11,   7, 27.90, 1015.80, 15.00, 5,  13, 255, 0.000
64013000, 5301503, 2016-11-02 01:00:00, 17.12620, 109.21340,   0,  11,   4, 27.90, 1016.60, 15.00, 6,  22, 255, 0.000
64013000, 5301503, 2016-11-02 02:00:00, 17.10200, 109.20440,   0,  10,   7, 27.90, 1016.90, 15.00, 4,   8, 255, 0.000
64013000, 5301503, 2016-11-02 03:00:00, 17.07720, 109.19460,   0,  11,   2, 27.91, 1016.70, 15.00, 5,   4, 255, 0.000
64013000, 5301503, 2016-11-02 04:00:00, 17.07720, 109.19460,  63,   9,  12, 27.92, 1016.00, 15.00, 4,  10, 255, 0.000
64013000, 5301503, 2016-11-02 05:00:00, 17.02520, 109.17460,   0,  11,   7, 27.92, 1015.10, 15.00, 5,  15, 255, 0.000
64013000, 5301503, 2016-11-02 06:00:00, 16.99820, 109.16520,   0,  11,   4, 27.93, 1014.60, 15.00, 6,   8, 255, 0.000
64013000, 5301503, 2016-11-02 07:00:00, 16.97000, 109.15520,   0,  10,   7, 27.93, 1013.80, 15.00, 4,  12, 255, 0.000
64015370, 5301502, 2016-10-30 00:00:00, 17.86020, 114.87800,   0,  11,   8, 28.31, 1013.70, 15.00, 9,  14, 255, 0.000
64015370, 5301502, 2016-10-30 01:00:00, 17.86020, 114.87800,  61,   7,  12, 28.31, 1014.20, 15.00, 8,   8, 255, 0.000
64015370, 5301502, 2016-10-30 02:00:00, 17.86020, 114.87800, 121,  10,  12, 28.31, 1014.80, 15.00, 11,   8, 255, 0.000
64015370, 5301502, 2016-10-30 03:00:00, 17.86020, 114.87800, 181,  11,  12, 28.32, 1014.50, 15.00, 9,  19, 255, 0.000
64015370, 5301502, 2016-10-30 04:00:00, 17.88540, 114.85940,   0,  10,   8, 28.32, 1014.20, 15.00, 9,   1, 255, 0.000
64015370, 5301502, 2016-10-30 05:00:00, 17.88540, 114.85940,  60,  11,  12, 28.32, 1013.40, 15.00, 8,  11, 255, 0.000
64015370, 5301502, 2016-10-30 06:00:00, 17.88540, 114.85940, 120,  11,  12, 28.31, 1012.70, 15.00, 9,  19, 255, 0.000
64015370, 5301502, 2016-10-30 07:00:00, 17.89560, 114.83260,   0,  11,   6, 28.32, 1012.40, 15.00, 7,   8, 255, 0.000
64015370, 5301502, 2016-10-30 08:00:00, 17.89780, 114.81780,   0,  10,   8, 28.31, 1012.10, 15.00, 8,  12, 255, 0.000
64015370, 5301502, 2016-10-30 09:00:00, 17.89780, 114.81780,  61,  11,  12, 28.30, 1012.40, 15.00, 6,   8, 255, 0.000
64015370, 5301502, 2016-10-30 10:00:00, 17.90100, 114.78500,   0,  11,   8, 28.28, 1012.70, 15.00, 9,  91, 255, 0.000
64015370, 5301502, 2016-10-30 11:00:00, 17.90100, 114.78500,  61,  11,  12, 28.28, 1013.20, 15.00, 8,  20, 255, 0.000
64015370, 5301502, 2016-10-30 12:00:00, 17.91120, 114.75700,   0,  12,   5, 28.27, 1013.70, 15.00, 9,  10, 255, 0.000
64015370, 5301502, 2016-10-30 13:00:00, 17.91840, 114.74540,   0,  11,  10, 28.27, 1014.30, 15.00, 10,  17, 255, 0.000
64015370, 5301502, 2016-10-30 14:00:00, 17.92440, 114.73440,   0,  11,   4, 28.26, 1014.40, 15.00, 6,  10, 255, 0.000
64015370, 5301502, 2016-10-30 15:00:00, 17.93280, 114.72420,   0,  11,   9, 28.24, 1014.40, 15.00, 6,   1, 255, 0.000
64015370, 5301502, 2016-10-30 16:00:00, 17.94100, 114.71800,   0,  11,   7, 28.22, 1014.30, 15.00, 10,  14, 255, 0.000
64015370, 5301502, 2016-10-30 17:00:00, 17.94100, 114.71800,  61,  12,  12, 28.23, 1013.90, 15.00, 9,  13, 255, 0.000
64015370, 5301502, 2016-10-30 18:00:00, 17.95680, 114.70620,   0,  11,   6, 28.22, 1013.20, 15.00, 7,  22, 255, 0.000
64015370, 5301502, 2016-10-30 19:00:00, 17.96440, 114.69960,   0,  12,   7, 28.21, 1012.60, 15.00, 9,  12, 255, 0.000
64015370, 5301502, 2016-10-30 20:00:00, 17.97140, 114.69340,   0,  11,   8, 28.21, 1012.60, 15.00, 7,  10, 255, 0.000
64015370, 5301502, 2016-10-30 21:00:00, 17.97140, 114.69340,  61,  12,  12, 28.19, 1012.70, 15.00, 8,  11, 255, 0.000
64015370, 5301502, 2016-10-30 22:00:00, 17.98580, 114.68340,   0,  10,   6, 28.19, 1013.10, 15.00, 7,  12, 255, 0.000
64015370, 5301502, 2016-10-30 23:00:00, 17.99280, 114.68040,   0,  10,   7, 28.18, 1013.80, 15.00, 9,  10, 255, 0.000
64015370, 5301502, 2016-10-31 00:00:00, 17.99820, 114.67960,   0,  10,   9, 28.18, 1014.60, 15.00, 8,   8, 255, 0.000
64015370, 5301502, 2016-10-31 01:00:00, 17.99820, 114.67960,  60,  10,  12, 28.18, 1015.00, 15.00, 5,  19, 255, 0.000
64015370, 5301502, 2016-10-31 02:00:00, 18.00320, 114.67700,   0,  10,   9, 28.17, 1015.30, 15.00, 9,   9, 255, 0.000
64015370, 5301502, 2016-10-31 03:00:00, 18.00320, 114.67700,  60,  10,  12, 28.18, 1014.90, 15.00, 12,  19, 255, 0.000
64015370, 5301502, 2016-10-31 04:00:00, 18.00320, 114.67700, 120,  11,  12, 28.20, 1014.10, 15.00, 7,  16, 255, 0.000
64015370, 5301502, 2016-10-31 05:00:00, 18.00520, 114.66020,   0,  10,  11, 28.21, 1013.70, 15.00, 10,  12, 255, 0.000
64015370, 5301502, 2016-10-31 06:00:00, 18.00580, 114.65240,   0,  11,   8, 28.22, 1013.10, 15.00, 8,   7, 255, 0.000
64015370, 5301502, 2016-10-31 07:00:00, 18.00580, 114.65240,  61,   6,  12, 28.23, 1012.50, 15.00, 6,  19, 255, 0.000
64015370, 5301502, 2016-10-31 08:00:00, 18.00620, 114.63420,   0,  11,   9, 28.22, 1012.30, 15.00, 12,  20, 255, 0.000
64015370, 5301502, 2016-10-31 09:00:00, 18.00720, 114.62340,   0,  11,   8, 28.22, 1012.50, 15.00, 7,  20, 255, 0.000
64015370, 5301502, 2016-10-31 10:00:00, 18.00760, 114.61080,   0,  11,   8, 28.21, 1012.70, 15.00, 8,  12, 255, 0.000
64015370, 5301502, 2016-10-31 11:00:00, 18.00920, 114.59760,   0,  11,  10, 28.20, 1013.40, 15.00, 6,  20, 255, 0.000
64015370, 5301502, 2016-10-31 12:00:00, 18.01120, 114.58320,   0,  12,   4, 28.18, 1014.20, 15.00, 6,  21, 255, 0.000
64015370, 5301502, 2016-10-31 13:00:00, 18.01360, 114.56680,   0,  11,   8, 28.18, 1014.70, 15.00, 6,  21, 255, 0.000
64015370, 5301502, 2016-10-31 14:00:00, 18.01360, 114.56680,  60,  11,  12, 28.17, 1014.70, 15.00, 6,   9, 255, 0.000
64015370, 5301502, 2016-10-31 15:00:00, 18.01360, 114.56680, 120,  11,  12, 28.16, 1014.40, 15.00, 6,  12, 255, 0.000
64015370, 5301502, 2016-10-31 16:00:00, 18.02380, 114.52620,   0,  11,  10, 28.16, 1014.20, 15.00, 11,  13, 255, 0.000
64015370, 5301502, 2016-10-31 17:00:00, 18.02380, 114.52620,  60,   8,  12, 28.14, 1013.70, 15.00, 9,  18, 255, 0.000
64015370, 5301502, 2016-10-31 18:00:00, 18.03260, 114.50900,   0,  11,   9, 28.13, 1013.20, 15.00, 7,  12, 255, 0.000
64015370, 5301502, 2016-10-31 19:00:00, 18.03620, 114.50480,   0,  11,   6, 28.11, 1013.00, 15.00, 6,  10, 255, 0.000
64015370, 5301502, 2016-10-31 20:00:00, 18.03980, 114.50300,   0,  11,  11, 28.10, 1012.50, 15.00, 9,  11, 255, 0.000
64015370, 5301502, 2016-10-31 21:00:00, 18.04320, 114.49820,   0,  11,   7, 28.09, 1012.20, 15.00, 7,  17, 255, 0.000
64015370, 5301502, 2016-10-31 22:00:00, 18.04640, 114.49040,   0,  11,  10, 28.07, 1012.40, 15.00, 7,  10, 255, 0.000
64015370, 5301502, 2016-10-31 23:00:00, 18.04640, 114.49040,  60,  11,  12, 28.06, 1013.00, 15.00, 9,  13, 255, 0.000
64015370, 5301502, 2016-11-01 00:00:00, 18.04640, 114.49040, 120,  10,  12, 28.05, 1013.50, 15.00, 9,  12, 255, 0.000
64015370, 5301502, 2016-11-01 01:00:00, 18.04640, 114.49040, 180,  10,  12, 28.06, 1013.90, 15.00, 8,  18, 255, 0.000
64015370, 5301502, 2016-11-01 02:00:00, 18.06220, 114.45060,   0,  10,   9, 28.06, 1014.20, 15.00, 16,  11, 255, 0.000
64015370, 5301502, 2016-11-01 03:00:00, 18.06740, 114.44300,   0,  10,  10, 28.07, 1013.90, 15.00, 5,  15, 255, 0.000
64015370, 5301502, 2016-11-01 04:00:00, 18.07340, 114.43640,   0,  11,   9, 28.06, 1013.30, 15.00, 8,   9, 255, 0.000
64015370, 5301502, 2016-11-01 05:00:00, 18.07960, 114.42960,   0,  11,   7, 28.07, 1012.70, 15.00, 7,  18, 255, 0.000
64015370, 5301502, 2016-11-01 06:00:00, 18.07960, 114.42960,  61,  11,  12, 28.07, 1012.10, 15.00, 8,   8, 255, 0.000
64015370, 5301502, 2016-11-01 07:00:00, 18.07960, 114.42960, 121,  11,  12, 28.06, 1012.00, 15.00, 7,  12, 255, 0.000
64015370, 5301502, 2016-11-01 08:00:00, 18.09480, 114.41420,   0,  10,   7, 28.05, 1011.80, 15.00, 6,   9, 255, 0.000
64015370, 5301502, 2016-11-01 09:00:00, 18.09760, 114.40960,   0,  11,   8, 28.03, 1012.30, 15.00, 8,  22, 255, 0.000
64015370, 5301502, 2016-11-01 10:00:00, 18.09760, 114.40960,  60,   7,  12, 28.02, 1012.70, 15.00, 7,   9, 255, 0.000
64015370, 5301502, 2016-11-01 11:00:00, 18.10280, 114.39760,   0,  11,   7, 28.00, 1013.30, 15.00, 9,   9, 255, 0.000
64015370, 5301502, 2016-11-01 12:00:00, 18.10380, 114.39020,   0,  12,   9, 27.98, 1014.30, 15.00, 7,  10, 255, 0.000
64015370, 5301502, 2016-11-01 13:00:00, 18.10460, 114.38260,   0,  11,   7, 27.97, 1014.80, 15.00, 9,  10, 255, 0.000
64015370, 5301502, 2016-11-01 14:00:00, 18.10560, 114.37540,   0,  11,   7, 27.95, 1014.80, 15.00, 7,   9, 255, 0.000
64015370, 5301502, 2016-11-01 15:00:00, 18.10760, 114.36960,   0,  11,  10, 27.95, 1014.90, 15.00, 8,   1, 255, 0.000
64015370, 5301502, 2016-11-01 16:00:00, 18.10760, 114.36960,  60,   9,  12, 27.92, 1014.80, 15.00, 12,  10, 255, 0.000
64015370, 5301502, 2016-11-01 17:00:00, 18.10980, 114.35660,   0,  12,   9, 27.93, 1014.20, 15.00, 13,  13, 255, 0.000
64015370, 5301502, 2016-11-01 18:00:00, 18.11140, 114.34980,   0,  11,   7, 27.91, 1013.70, 15.00, 6,  10, 255, 0.000
64015370, 5301502, 2016-11-01 19:00:00, 18.11140, 114.34980,  61,  11,  12, 27.90, 1013.20, 15.00, 8,  16, 255, 0.000
64015370, 5301502, 2016-11-01 20:00:00, 18.11140, 114.34980, 121,   9,  12, 27.88, 1012.70, 15.00, 7,  18, 255, 0.000
64015370, 5301502, 2016-11-01 21:00:00, 18.11140, 114.34980, 181,  10,  12, 27.83, 1012.60, 15.00, 9,  22, 255, 0.000
64015370, 5301502, 2016-11-01 22:00:00, 18.11640, 114.32180,   0,  11,   7, 27.81, 1013.30, 15.00, 10,  11, 255, 0.000
64015370, 5301502, 2016-11-01 23:00:00, 18.11640, 114.32180,  61,  11,  12, 27.83, 1014.10, 15.00, 12,  11, 255, 0.000
64015370, 5301502, 2016-11-02 00:00:00, 18.11640, 114.32180, 121,  11,  12, 27.83, 1014.40, 15.00, 8,  10, 255, 0.000
64015370, 5301502, 2016-11-02 01:00:00, 18.12040, 114.29880,   0,  10,   9, 27.81, 1015.10, 15.00, 15,   9, 255, 0.000
64015370, 5301502, 2016-11-02 02:00:00, 18.11980, 114.28720,   0,   9,  10, 27.82, 1015.50, 15.00, 10,   7, 255, 0.000
64015370, 5301502, 2016-11-02 03:00:00, 18.11860, 114.26980,   0,  11,  10, 27.82, 1015.30, 15.00, 8,  13, 255, 0.000
64015370, 5301502, 2016-11-02 04:00:00, 18.11840, 114.25140,   0,  11,   8, 27.81, 1014.60, 15.00, 11,   2, 255, 0.000
64015370, 5301502, 2016-11-02 05:00:00, 18.11840, 114.25140,  60,   8,  12, 27.82, 1014.10, 15.00, 10,  11, 255, 0.000
64015370, 5301502, 2016-11-02 06:00:00, 18.12520, 114.21760,   0,  11,  10, 27.80, 1013.40, 15.00, 8,   8, 255, 0.000
64015370, 5301502, 2016-11-02 07:00:00, 18.13260, 114.20340,   0,  11,  10, 27.79, 1012.80, 15.00, 8,  21, 255, 0.000
